Погода Большой Улуй

Погода Большой Улуй : погода сейчас, прогноз погоды и архив. Всё, что Вы хотите узнать о погоде Большой Улуй!

Поиск расширенной информации на нашем сайте:

Полезная информация: Дома из пенобетона в спб строительство домов из пенобетона.

Другие новости

Новости СМИ2

Главная страница сайта

Новости сайта

02.10.2013

Напоминаем, что на нашем новом сайте вы можете получить высокодетализированные прогнозы погоды по пунктам России, СНГ и мира (включающие важные для авиации метеовеличины, такие как направление и скорость ветра, видимость, явления погоды, количество и форма облачности, нижняя и верхняя граница облачности), а также ознакомиться с разнообразными материалами по авиационной метеорологии и подборкой полезных ссылок на эту тему.

Сайт Метеоцентр.Азия посвящён разработке технологий оптимизации авиаметеорологического обслуживания, включая проектирование и перспективное создание нескольких автоматизированных авиаметеорологических систем:
- система выпуска высокодетальных прогностических карт явлений погоды для нижнего воздушного пространства по России и ближнему зарубежью;
- система верификации прогнозов TAF (выпускаемых синоптиками официальных АМСГ РФ и ближнего зарубежья) и AUTOTAF (выпускаемых сайтом Метеоцентр.Азия) - выявление ошибок, онлайн-сопоставление с фактической погодой METAR, автоматическое внесение коррективов в прогнозы при резком отклонении фактической погоды от прогноза, подсчёт оправдываемости прогнозов по элементам и в целом;
- система обработки, анализа и отображения авиаметеорологической информации для применения провайдерами метеорологической информации.

Рекомендуем: Камень натуральный облицовочный купить камни природные природный камень.

Погода Большой Улуй - сегодня

Время (UTC), дата Ветер
(°,м/с) 
Видим.   Явления Облачность Т
(°С)
Тd
(°С)
f(%) Тe
(°С)
Pmin
(гПа)
dP
(гПа)
Po
(мм)
O2
(г/м3)
Тmin Tmax R s Состояние
почвы
12 26.06.17 270 (З) 4{10}  20000 м  {ливн. осадки}  8/8 600 м кучево-дожд. 
[Cb cap]
+21.6 +16.7 74 +34  1004.7  0.4  734  270    +23.2     
15 26.06.17 280 (З) 20000 м  в посл. час ливневой дождь  10/10 600 м кучево-дожд. 
[Cb cap]
+17.4 +16.1 92 +29  1006.2  735  275           
18 26.06.17 210 (ЮЗ) н/о  {ливн. осадки}  9/9 600 м кучево-дожд. 
[Cb cap]
+16.9 +16.1 95 +29  1007.7  1.5  736  276           
21 26.06.17 220 (ЮЗ) 20000 м    9/9 600 м 
[Sc]
+16.5 +15.4 93 +27  1008.6  0.9  736  276           
00 27.06.17 240 (ЮЗ) 20000 м    4/4 600 м 
[Sc]
+18.6 +16.3 86 +32  1009.5  737  274  +16.5      влажная 
03 27.06.17 240 (ЮЗ) 20000 м    6/0 верхняя 
[Ci fib]
+23.1 +17.9 73 +38  1009.2  737  270           
06 27.06.17 240 (ЮЗ) 20000 м    8/6 600 м верхняя 
[Cu med, cong|Ci fib]
+26.2 +15.9 53 +37  1008.7  -0.2  737  268           
09 27.06.17 260 (З) 20000 м    6/6 600 м 
[Cu med, cong]
+27.9 +12.9 40 +34  1008.3  -0.2  737  267           
12 27.06.17 250 (З) 20000 м    ясно 
+27.7 +13.7 42 +35  1007.8  -0.5  736  267    +28.2       
15 27.06.17 180 (Ю) 20000 м    3/0 верхняя 
[Ci fib]
+21.8 +16.1 70 +33  1009.1  0.7  737  271           
18 27.06.17 160 (Ю) н/о    4/0 верхняя 
[Ci fib]
+20.4 +14.5 69 +29  1009.3  0.1  737  273           
21 27.06.17 160 (Ю) 20000 м    3/0 верхняя 
[Ci fib]
+18.3 +13.8 75 +26  1009.4  -0.1  737  275           
00 28.06.17 170 (Ю) 20000 м    6/0 верхняя 
[Ci fib]
+20 +14.1 69 +28  1009.2  737  274  +17.5        сухая 
03 28.06.17 180 (Ю) 20000 м    8/0 верхняя 
[Ci fib]
+25.9 +16.3 55 +37  1008.1  -0.5  737  268           
06 28.06.17 220 (ЮЗ) 20000 м    4/3 600 м верхняя 
[Cu med, cong|Ci fib]
+28.8 +14.7 42 +37  1007.6  -0.3  736  265           
09 28.06.17 290 (З) 20000 м    6/6 600 м 
[Cu med, cong]
+29 +15.3 43 +39  1007.5  -0.1  736  265           
12 28.06.17 340 (С) 20000 м    8/4 600 м верхняя 
[Cu med, cong|Ci fib]
+27.4 +16.5 51 +39  1008.3  0.7  737  266    +29.4       
15 28.06.17 330 (СЗ) 20000 м    6/0 средняя 
[Ac trans]
+22.6 +16.6 69 +35  1010.6  1.8  738  271           
18 28.06.17 300 (СЗ) н/о    8/8 600 м 
[Sc]
+19.6 +16.7 83 +33  1012  1.2  739  274           
21 28.06.17 290 (З) 20000 м    6/4 600 м верхняя 
[Sc|Ci fib]
+17.4 +16 91 +29  1012.9  0.5  739  277           
00 29.06.17 020 (С) 20000 м    8/8 600 м 
[Sc]
+18.3 +16 86 +31  1013.3  0.5  740  276  +17        сухая 
03 29.06.17 330 (СЗ) 20000 м    8/8 600 м 
[Cu med, cong]
+21.4 +16 71 +32  1012.3  -0.7  739  273           
06 29.06.17 070 (В) 20000 м    6/6 600 м 
[Cu med, cong]
+23.8 +15.6 60 +34  1010.7  -1.3  738  270           
09 29.06.17 250 (З) 20000 м    8/8 600 м 
[Cu med, cong]
+25.8 +15.5 53 +36  1008.1  -2.3  737  268           
12 29.06.17 150 (ЮВ) 20000 м    8/0 верхняя 
[Ci fib]
+26.5 +16.9 56 +39  1006.9  -1.8  735  266    +27.3       
Время (UTC), дата Ветер
(°,м/с) 
Видим.   Явления Облачность Т
(°С)
Тd
(°С)
f(%) Тe
(°С)
Pmin
(гПа)
dP
(гПа)
Po
(мм)
O2
(г/м3)
Тmin Tmax R s Состояние
почвы

Для получения пояснительной информации подведите курсор к названию столбца.

ПОГОДА Большой Улуй - архив

Всё, что Вы хотите узнать о погоде Большой Улуй - удобно и подробно!

Выберите нужную дату (начиная с 1 января 2015* года) и нажмите кнопку "Найти".
Будут отображены архивные сводки погоды по пункту Большой Улуй, начиная с указанной даты.


Отображать данные в формате CSV (для использования в таблицах Excel)


Внимание! Наш архив погоды предназначен исключительно для личного некоммерческого использования в познавательных целях. Если Вам необходимы официальные справки о состоянии погоды (для производственных, юридических, коммерческих и т.п. целей), обращайтесь в органы Росгидромета.

*Примечание: данная дата относится к архиву по метеостанциям СССР (Россия, СНГ, Балтия).
Архив по метеостанциям Зарубежной Европы и Азии (кроме Китая) хранится 10 дней, по другим регионам земного шара (Китай, Африка, Америка, Австралия, Океания) - 1 день.

Большой Улуй - район местоположения метеостанции


Название, широта, долгота, высота метеостанции:
Большой Улуй 56.6°ш. 90.6°д. 231 м над ур. моря [Российская Федерация]

Дополнительная информация

В oтличие oт бoльшинства пoгoдных сайтoв мы публикуем пoдрoбную метеoинфoрмацию в детальнoм прoфессиoнальнoм фoрмате.

Характеристики температуры и влажнoсти вoздуха измеряются на высoте 2 м в тени вдали oт зданий и деревьев.
Скoрoсть ветра измеряется на высoте 10 м (на урoвне рoста челoвека скoрoсть ветра ниже в 1.5-2 раза). Если метеoстанция нахoдится в гoрoде или в лесу, тo скoрoсть ветра занижена на 2-4 м/с пo сравнению с oткрытым местoм. Скoрoсть ветра над акватoриями крупных рек и oзёр, а также на вершинах хoлмoв на 2-5 м/с выше, чем в oбычных услoвиях.
Атмoсфернoе давление в разных тoчках местнoсти мoжет значительнo oтличаться oт давления на метеoстанции, в зависимoсти oт услoвий рельефа (при пoдъёме на 10 м давление пoнижается примернo на 1 мм рт.ст.).